Location: Charlie Elliott
(33.4688°N, 83.7353°W)
Time: 15:15:41
(UTC-04:00)

Envisat - Visible Passes

Search period start: 31 October 2020 00:00
Search period end: 09 November 2020 23:00
Orbit: 764 x 766 km, 98.1° (Epoch: 31 October)

Date Brightness Start Highest point End Pass type
(mag) Time Alt. Az. Time Alt. Az. Time Alt. Az.
31 Oct 3.7 07:16:22 10° NNE 07:21:24 62° E 07:26:24 10° S visible
31 Oct 6.3 20:08:19 10° WSW 20:10:54 14° W 20:13:30 10° WNW visible
01 Nov 5.4 05:40:19 10° NE 05:44:29 25° E 05:48:37 10° SSE visible
01 Nov 4.9 18:29:18 10° SSW 18:33:52 34° W 18:38:28 10° NNW visible
03 Nov 4.2 06:05:07 10° NNE 06:10:01 47° E 06:14:52 10° S visible
03 Nov 6.0 18:55:59 10° SW 18:59:27 18° W 19:02:55 10° NW visible
04 Nov 5.8 05:29:25 10° NE 05:33:02 20° E 05:36:38 10° SE visible
04 Nov 4.4 18:17:38 10° S 18:22:27 44° W 18:27:18 10° NNW visible
05 Nov 3.1 06:30:21 10° NNE 06:35:27 88° ESE 06:40:32 10° SSW visible
06 Nov 4.8 05:53:57 10° NNE 05:58:36 36° E 06:03:14 10° SSE visible
06 Nov 5.6 18:43:57 10° SSW 18:47:59 24° W 18:52:03 10° NW visible
07 Nov 6.2 05:18:45 10° ENE 05:21:35 15° E 05:24:24 10° SE visible
07 Nov 3.8 18:06:05 10° S 18:11:03 58° W 18:16:04 10° NNW visible
08 Nov 3.5 06:19:01 10° NNE 06:24:05 68° ESE 06:29:07 10° S visible
08 Nov 6.3 19:11:29 10° WSW 19:13:37 13° W 19:15:46 10° WNW visible
09 Nov 5.2 05:42:51 10° NE 05:47:11 28° E 05:51:28 10° SSE visible
09 Nov 5.1 18:32:07 10° SSW 18:36:34 31° W 18:41:02 10° NW visible
